EHI
0 0 0 0 0 0 0 0 0 0 0 0 0 0 0 0 0 0 0 0 0 0 0 0 0 0 0 0 0 0 0 0 0 0 0 0 0 0 0 0 0 0 0
0 0 0 0 0 0 0 0 0 0 0 0 0 0 0 0 0 0 0 0 0 0 0 0 0 0 0 0 0 0 0 0 0 0 0 0 0 0 0 0 0 0 0
0 0 0 0 0 0 0 0 0 0 0 0 0 0 0 0 0 0 0 0 0 0 0 0 0 0 0 0 0 0 0 0 0 0 0 0 0 0 0 0 0 0 0
0 0 0 0 0 0 0 0 0 0 0 0 0 0 0 0 0 0 0 0 0 0 0 0 0 0 0 0 0 0 0 0 0 0 0 0 0 0 0 0 0 0 0
0 0 0 0 0 0 0 0 0 0 0 0 0 0 0 0 0 0 0 0 0 0 0 0 0 0 0 0 0 0 0 0 0 0 0 0 0 0 0 0 0 0 0
0 0 0 0 0 0 0 0 0 0 0 0 0 0 0 0 0 0 0 0 0 0 0 0 0 0 0 0 0 0 0 0 0 0 0 0 0 0 0 0 0 0 0
0 0 0 0 0 0 0 0 0 0 0 0 0 0 0 0 0 0 0 0 0 0 0 0 0 0 0 0 0 0 0 0 0 0 0 0 0 0 0 0 0 0 0
0 0 0 0 0 0 0 0 0 0 0 0 0 0 0 0 0 0 0 0 0 0 0 0 0 0 0 0 0 0 0 0 0 0 0 0 0 0 0 0 0 0 0
0 0 0 0 0 0 0 0 0 0 0 0 0 0 0 0 0 0 0 0 0 0 0 0 0 0 0 0 0 0 0 0 0 0 0 0 0 0 0 0 0 0 0
0 0 0 0 0 0 0 0 0 0 0 0 0 0 0 0 0 0 0 0 0 0 0 0 0 0 0 0 0 0 0 0 0 0 0 0 0 0 0 0 0 0 0
0 0 0 0 0 0 0 0 0 0 0 0 0 0 0 0 0 0 0 0 0 0 0 0 0 0 0 0 0 0 0 0 0 0 0 0 0 0 0 0 0 0 0
0 0 0 0 0 0 0 0 0 0 0 0 0 0 0 0 0 0 0 0 0 0 0 0 0 0 0 0 0 0 0 0 0 0 0 0 0 0 0 0 0 0 0
0 0 0 0 0 0 0 0 0 0 0 0 0 0 0 0 0 0 0 0 0 0 0 0 0 0 0 0 0 0 0 0 0 0 0 0 0 0 0 0 0 0 0
0 0 0 0 0 0 0 0 0 0 0 0 0 0 0 0 0 0 0 0 0 0 0 0 0 0 0 0 0 0 0 0 0 0 0 0 0 0 0 0 0 0 0
0 0 0 0 0 0 0 0 0 0 0 0 0 0 0 0 0 0 0 0 0 0 0 0 0 0 0 0 0 0 0 0 0 0 0 0 0 0 0 0 0 0 0
0 0 0 0 0 0 0 0 0 0 0 0 0 0 0 0 0 0 0 0 0 0 0 0 0 0 0 0 0 0 0 0 0 0 0 0 0 0 0 0 0 0 0
0 0 0 0 0 0 0 0 0 0 0 0 0 0 0 0 0 0 0 0 0 0 0 0 0 0 0 0 0 0 0 0 0 0 0 0 0 0 0 0 0 0 0
0 0 0 0 0 0 0 0 0 0 0 0 0 0 0 0 0 0 0 0 0 0 0 0 0 0 0 0 0 0 0 0 0 0 0 0 0 0 0 0 0 0 0
0 0 0 0 0 0 0 0 0 0 0 0 0 0 0 0 0 0 0 0 0 0 0 0 0 0 0 0 0 0 0 0 0 0 0 0 0 0 0 0 0 0 0
0 0 0 0 0 0 0 0 0 0 0 0 0 0 0 0 0 0 0 0 0 0 0 0 0 0 0 0 0 0 0 0 0 0 0 0 0 0 0 0 0 0 0
0 0 0 0 0 0 0 0 0 0 0 0 0 0 0 0 0 0 0 0 0 0 0 0 0 0 0 0 0 0 0 0 0 0 0 0 0 0 0 0 0 0 0
0 0 0 0 0 0 0 0 0 0 0 0 0 0 0 0 0 0 0 0 0 0 0 0 0 0 0 0 0 0 0 0 0 0 0 0 0 0 0 0 0 0 0
0 0 0 0 0 0 0 0 0 0 0 0 0 0 0 0 0 0 0 0 0 0 0 0 0 0 0 0 0 0 0 0 0 0 0 0 0 0 0 0 0 0 0
0 0 0 0 0 0 0 0 0 0 0 0 0 0 0 0 0 0 0 0 0 0 0 0 0 0 0 0 0 0 0 0 0 0 0 0 0 0 0 0 0 0 0
0 0 0 0 0 0 0 0 0 0 0 0 0 0 0 0 0 0 0 0 0 0 0 0 0 0 0 0 0 0 0 0 0 0 0 0 0 0 0 0 0 0 0
0 0 0 0 0 0 0 0 0 0 0 0 0 0 0 0 0 0 0 0 0 0 0 0 0 0 0 0 0 0 0 0 0 0 0 0 0 0 0 0 0 0 0
Wind_Speed
1 1 1 1 1 1 1 2 1 1 1 1 2 1 1 2 2 2 2 3 3 3 2 3 4 3 2 2 2 2 3 3 5 4 3 3 3 3 3 3 3 3 4
1 1 2 1 1 1 1 2 2 2 2 2 2 2 2 2 2 2 3 3 3 3 3 4 4 3 4 3 3 3 3 3 4 5 4 3 4 4 4 3 3 3 3
1 2 2 1 1 2 2 2 2 2 2 2 2 2 3 3 3 3 3 3 3 3 4 4 4 4 4 3 3 4 3 3 3 4 4 3 3 3 3 3 4 4 4
1 1 2 2 2 2 2 2 2 2 2 2 3 3 3 3 3 3 3 3 3 3 4 4 4 4 5 4 4 4 4 3 3 4 4 3 3 3 2 3 4 3 4
2 2 2 2 2 2 2 2 2 3 3 2 3 3 3 3 3 3 3 3 3 4 4 4 4 5 6 5 4 4 4 3 3 4 4 3 3 3 3 3 4 4 4
2 3 2 2 2 2 2 2 3 3 3 2 3 3 3 3 6 6 4 3 3 4 4 4 4 5 7 8 9 8 6 5 5 5 5 5 5 4 4 3 4 4 4
3 3 2 2 2 3 3 3 3 3 3 3 3 3 3 5 7 8 7 4 3 4 4 4 4 4 5 4 6 8 8 9 9 7 6 7 6 5 5 5 5 5 5
3 3 2 3 3 3 3 3 3 3 3 3 3 4 4 5 8 8 8 4 4 4 4 4 4 4 4 4 4 4 5 5 7 6 6 6 5 5 6 6 6 5 3
3 3 3 3 3 3 4 4 3 3 3 3 3 4 4 4 7 8 7 3 3 4 4 4 5 4 7 8 5 4 5 5 6 9 10 9 10 9 7 3 3 3 4
3 3 3 3 4 4 4 4 3 3 4 3 4 4 4 4 7 7 7 2 3 3 3 4 7 7 8 8 5 4 6 5 4 5 6 7 6 6 7 5 4 3 2
3 3 4 4 4 4 4 3 3 3 3 3 4 4 4 5 6 7 7 3 3 3 3 3 4 9 9 9 7 5 7 6 4 4 4 4 3 3 3 3 3 3 3
3 4 4 4 4 4 3 3 3 3 3 3 3 4 3 4 5 6 7 7 6 4 4 3 5 9 9 9 7 8 9 7 3 3 4 3 3 3 2 3 2 2 2
4 4 4 4 4 4 3 3 3 2 3 3 3 3 3 3 4 7 8 8 8 5 4 7 8 9 9 7 8 10 7 3 2 3 4 4 3 3 2 1 1 1 2
4 4 4 4 4 3 3 2 3 3 3 3 3 3 3 3 3 3 3 4 6 5 4 6 8 8 7 7 7 5 3 3 3 3 4 3 2 2 2 1 1 1 1
4 4 4 4 3 3 3 3 4 4 4 4 3 3 3 4 5 7 4 3 3 4 4 2 3 3 3 3 3 3 3 3 3 3 3 3 2 2 2 2 1 1 2
4 4 3 3 3 3 3 3 5 6 8 9 7 6 5 7 8 8 8 8 8 8 4 3 3 3 4 4 4 3 3 3 3 3 3 3 3 3 3 2 2 2 3
4 4 3 3 3 3 3 3 3 4 6 7 7 8 8 7 8 8 8 8 8 7 4 3 4 4 4 4 4 4 4 3 3 3 3 3 3 3 3 3 3 2 2
3 4 4 3 3 3 3 3 3 3 3 3 4 7 7 7 8 8 7 5 4 3 3 3 4 4 4 4 4 4 3 3 3 3 3 3 3 3 3 3 3 3 3
3 3 2 2 2 2 2 2 3 3 3 3 3 3 6 6 6 6 5 2 3 3 3 4 4 4 4 4 4 4 4 3 3 3 3 3 3 3 3 3 3 4 3
2 4 3 2 2 2 2 2 2 3 3 3 3 3 2 3 2 3 3 2 3 3 3 4 4 4 4 4 4 3 3 3 3 3 3 3 3 3 3 3 3 3 2
2 2 4 2 2 2 2 2 2 3 3 3 3 4 6 3 3 3 3 3 3 3 4 4 4 4 3 3 3 3 3 3 3 3 3 2 2 2 2 2 2 2 2
2 2 2 2 2 2 2 2 3 3 3 4 3 4 6 3 2 3 3 3 3 3 3 3 4 3 3 3 3 3 3 3 3 2 2 2 2 2 2 2 2 2 2
2 2 2 2 2 3 3 2 2 3 3 3 3 3 3 2 3 3 3 3 3 3 3 3 3 3 3 3 3 3 3 3 3 3 2 2 2 2 2 2 2 3 2
2 2 2 2 2 2 2 2 2 2 3 3 2 2 2 2 3 3 3 3 3 3 3 3 3 4 5 4 3 3 3 3 2 2 3 3 3 2 2 2 2 3 2
1 2 2 2 2 2 2 2 2 2 2 2 2 2 3 3 3 3 3 3 3 3 4 4 3 3 4 4 4 3 4 4 3 2 2 2 3 3 2 2 2 2 2
1 2 2 1 1 2 2 2 2 2 2 2 2 2 2 3 3 3 2 2 3 3 3 3 3 4 4 3 3 4 4 3 3 3 2 2 2 2 2 2 2 2 2
Wind_Direction
254 241 237 211 200 211 223 236 241 248 248 250 259 262 264 263 256 245 250 245 237 244 244 233 232 229 231 236 241 244 245 238 257 274 277 285 290 291 290 281 278 272 270
253 248 233 217 218 230 240 241 242 243 235 234 244 252 262 268 263 254 263 254 245 245 245 240 239 239 239 236 236 241 245 246 248 267 281 286 283 278 275 280 287 284 271
269 255 248 237 234 241 251 248 247 242 237 233 237 247 252 254 260 261 257 262 264 254 249 245 245 238 241 242 239 240 243 253 253 260 273 281 285 282 286 290 288 279 274
282 255 249 250 245 250 254 247 249 246 233 229 234 243 249 254 257 260 260 264 265 261 255 248 246 242 245 244 244 243 246 247 253 261 268 276 281 281 277 282 289 281 279
283 264 254 265 261 259 254 253 256 254 246 232 234 242 247 248 255 265 262 263 263 263 258 253 253 256 257 256 256 248 247 246 252 256 264 273 271 273 264 266 277 284 278
286 273 269 264 256 257 256 251 252 251 240 236 237 238 243 256 268 273 276 265 268 269 268 262 261 257 259 264 266 263 253 247 246 248 256 260 260 258 263 266 275 279 273
279 279 276 276 269 264 264 257 253 251 240 240 240 236 238 252 266 269 273 269 263 264 269 270 273 271 273 265 271 272 270 267 261 253 251 255 257 251 254 259 259 262 267
280 281 282 285 279 270 263 259 260 261 249 246 247 245 245 254 268 272 274 263 256 259 263 264 267 265 264 270 267 268 268 271 271 263 257 260 263 255 244 250 257 266 278
278 282 282 277 271 265 260 256 259 260 257 253 253 249 250 258 271 277 277 260 255 261 261 260 263 261 270 278 274 270 275 278 280 280 283 281 278 278 273 263 249 253 272
274 282 285 280 267 261 260 262 260 257 255 256 260 254 252 251 264 271 278 260 260 267 265 260 263 267 270 274 266 262 269 276 286 290 288 287 279 271 271 250 230 238 263
286 284 280 275 269 263 260 259 258 259 256 257 259 258 252 257 265 269 274 269 263 270 270 269 269 276 275 275 274 259 264 277 274 271 274 276 271 260 253 252 242 229 238
289 284 280 274 270 269 261 259 256 253 251 256 259 265 258 259 265 266 271 273 278 266 266 268 273 281 283 281 278 277 280 284 272 269 269 266 263 261 258 256 253 259 252
285 282 281 279 270 265 259 257 254 245 245 254 256 263 268 262 264 272 275 276 280 279 271 277 281 283 287 282 278 280 281 270 261 260 262 265 264 266 267 276 297 309 323
275 279 278 278 276 270 259 249 247 243 243 249 252 258 265 263 257 259 270 278 279 281 280 276 279 280 284 282 279 275 263 252 252 253 259 261 261 257 251 245 260 273 298
265 269 270 269 267 267 262 250 248 243 243 252 251 249 258 261 266 280 287 281 278 269 284 272 266 269 267 269 268 260 251 254 258 251 254 258 260 259 258 248 247 241 252
260 266 264 264 263 261 267 276 264 264 270 272 273 272 268 271 279 281 284 286 285 282 281 265 262 261 259 262 265 263 252 250 252 254 253 251 251 250 255 249 241 240 249
250 262 264 265 264 263 264 269 284 291 283 281 277 280 283 283 282 283 285 287 281 277 266 260 263 263 262 261 263 263 261 255 251 250 250 251 250 248 244 242 235 235 246
249 262 267 261 264 266 268 270 272 280 292 289 283 284 287 291 291 288 288 292 279 270 260 259 264 268 265 259 258 260 261 259 253 249 248 245 241 244 245 240 233 231 242
245 249 252 260 265 270 273 277 277 281 284 291 296 291 292 296 296 294 298 280 274 273 269 264 261 262 266 263 258 254 250 248 250 251 249 247 244 240 242 239 234 243 249
244 266 271 262 264 271 270 271 276 279 283 286 286 286 295 303 297 301 296 283 276 278 273 268 266 264 265 267 264 255 250 249 246 248 251 250 246 239 237 234 231 229 234
248 261 273 270 258 263 264 266 269 275 278 280 280 285 293 286 279 282 285 282 277 276 278 277 276 273 267 264 263 257 252 251 248 248 247 248 244 241 236 232 232 228 230
248 244 244 242 250 259 268 266 267 269 273 278 282 287 294 294 284 284 287 288 284 279 276 277 277 273 268 263 261 256 251 250 246 242 243 243 242 236 228 223 224 226 219
256 259 263 264 261 270 277 271 268 269 273 276 281 287 291 285 282 285 289 291 294 296 296 289 285 285 284 276 265 252 246 243 238 227 224 230 230 227 222 221 220 222 221
264 261 263 268 270 266 267 272 272 274 277 281 286 286 286 286 286 288 289 291 295 296 296 295 289 286 288 287 276 260 250 249 238 218 210 213 216 215 213 215 221 220 220
265 269 266 264 265 264 268 274 279 284 289 293 292 292 292 289 289 290 293 294 293 294 297 299 297 291 285 285 282 273 267 264 255 235 204 199 201 207 212 214 214 212 223
265 270 269 270 272 272 272 275 281 287 290 294 295 296 296 293 292 295 298 300 300 299 299 300 302 302 299 293 286 280 277 265 250 245 211 181 186 196 198 204 202 210 215